ECMWFFLT2_850_thetae_057.txt.gz
Theta_e
335 334 335 336 336 335 328 324 324 323 322 324 327 330 330 330 331 331 330 329 328 330 331 331 331 330 329 330 331 331 328 328 330 331 330 328 328 329 328 327 329 330 330 330 330 330 329 326 326 324 321 322 322 328 333 332 332 332 331 324 313 310
337 336 337 336 337 335 328 328 330 328 327 327 328 329 329 329 330 330 329 328 328 330 332 331 333 333 333 332 332 332 330 329 329 329 329 329 328 329 329 328 328 329 330 330 330 329 329 327 326 326 323 322 326 332 333 333 333 332 332 327 316 312
339 338 338 337 337 335 331 333 332 329 330 330 330 330 330 330 331 331 329 329 330 332 332 332 333 333 333 334 334 333 332 331 330 327 327 328 328 328 330 330 329 328 330 330 330 330 329 328 327 326 325 327 331 332 331 332 332 331 332 327 318 314
340 340 339 337 338 336 334 336 334 332 332 332 332 332 332 331 332 332 331 330 332 332 331 332 332 333 333 333 333 333 333 331 331 328 325 326 328 329 329 331 331 329 328 329 332 332 332 331 329 327 328 332 331 330 332 332 331 332 331 326 319 317
341 340 339 338 338 337 337 337 335 334 333 332 333 334 333 331 332 333 332 332 332 332 331 332 331 332 333 333 333 331 329 328 329 328 326 326 325 325 327 330 331 330 329 330 332 333 333 333 331 329 332 334 331 330 333 333 332 332 330 325 322 321
341 339 339 339 338 338 338 338 338 336 334 332 333 333 332 331 332 332 333 332 333 333 332 331 330 331 332 331 330 327 327 328 328 327 327 329 327 323 327 330 330 330 331 331 332 332 331 333 331 330 332 333 331 332 333 333 332 331 329 326 324 324
341 340 339 339 338 338 339 339 338 337 335 333 332 332 332 332 332 332 333 332 334 334 332 331 331 333 333 331 331 330 331 330 330 330 327 331 331 328 330 331 330 331 332 331 333 333 332 333 332 331 332 334 333 334 334 334 333 331 331 329 325 324
341 341 340 339 338 338 338 338 336 336 334 332 331 333 333 333 332 332 332 333 335 334 333 333 333 334 334 334 332 332 331 329 331 332 331 333 332 331 332 332 332 332 333 332 332 331 327 329 332 332 334 334 334 334 334 334 334 332 331 330 327 324
341 341 340 339 339 338 336 337 336 335 334 331 332 333 333 333 332 332 331 332 334 335 334 334 333 333 332 331 328 326 326 325 328 328 328 332 332 329 328 327 327 328 328 327 328 327 322 325 330 330 331 333 333 334 334 335 335 332 330 330 329 326
341 341 341 340 339 338 336 337 336 334 333 333 334 334 332 332 331 333 333 333 335 335 335 335 334 333 331 327 323 323 323 323 328 328 326 329 330 328 327 326 325 326 325 325 328 328 325 327 328 326 330 333 333 333 333 333 333 332 330 329 331 329
339 340 341 340 339 338 337 337 335 333 333 334 335 334 333 333 331 333 334 334 336 335 335 336 334 334 332 328 326 325 325 325 329 331 331 332 330 330 330 329 329 331 330 329 330 330 328 330 330 328 331 332 331 332 332 332 332 331 330 328 330 331
337 339 340 339 338 338 338 336 335 334 334 334 334 333 333 333 333 335 334 333 335 335 335 334 333 335 333 332 332 329 328 328 328 328 333 335 331 330 332 329 329 333 333 332 333 331 330 331 331 331 332 331 329 329 330 330 331 331 331 329 329 331
338 338 338 338 338 338 337 337 336 335 334 334 334 334 333 334 335 337 334 332 334 334 334 331 330 333 333 335 334 331 330 329 328 329 332 333 329 329 332 329 327 330 332 333 334 332 332 331 331 331 331 330 329 328 327 328 331 331 330 330 329 331
337 336 337 338 338 337 336 338 337 336 334 333 334 335 335 335 335 337 334 330 332 334 334 331 328 330 334 336 333 332 332 331 331 329 329 329 330 331 333 332 330 331 333 333 334 333 332 332 332 331 330 331 329 327 327 328 331 331 331 330 330 331
336 336 337 337 337 336 336 337 337 337 334 332 334 335 336 336 336 336 334 329 329 332 333 332 328 328 333 336 334 334 334 334 332 326 327 329 331 334 334 334 333 333 333 333 333 332 332 332 332 331 330 329 328 326 328 329 330 330 329 330 330 329
336 337 337 336 336 336 336 337 337 337 335 333 335 336 336 336 335 336 334 331 330 331 333 334 330 328 332 335 335 334 334 335 330 326 328 329 331 335 334 334 334 333 333 332 333 332 332 333 332 332 329 328 327 326 329 330 330 330 329 329 329 328
338 338 337 336 335 335 336 336 337 337 335 334 336 337 336 334 334 335 334 334 333 332 333 334 332 329 330 334 335 333 335 333 328 328 329 328 331 334 334 334 334 333 333 332 332 332 333 333 333 333 330 327 327 327 328 329 331 331 329 327 327 328
339 337 336 336 337 336 336 336 337 336 334 335 337 336 334 332 334 335 334 335 335 333 334 334 332 331 330 333 335 335 335 330 327 330 330 330 333 333 334 334 333 333 333 332 332 332 332 333 333 332 329 326 327 327 328 329 331 330 328 326 325 326
339 338 336 336 337 337 336 336 336 336 334 334 335 335 334 333 334 335 333 335 335 333 332 331 330 330 328 331 335 336 334 328 328 332 332 333 334 333 332 332 331 331 331 331 332 333 332 332 332 331 329 327 327 327 328 328 330 330 328 327 326 326
339 338 337 335 336 337 336 335 336 337 333 331 333 335 335 334 335 334 333 335 335 332 330 328 328 328 327 331 335 335 331 327 330 334 333 334 334 332 330 328 329 329 329 331 332 332 332 332 331 330 329 328 327 328 329 329 329 329 328 326 326 326
340 339 338 336 337 337 336 336 337 336 332 330 332 335 335 334 334 334 334 336 334 331 329 326 327 329 328 332 335 334 330 328 332 335 334 334 333 330 328 328 329 329 329 332 332 332 332 331 330 329 329 327 328 329 329 329 329 329 329 328 326 326
340 339 338 337 338 337 335 335 337 335 332 331 332 333 333 333 333 332 333 335 333 330 330 326 327 331 332 334 334 332 331 331 333 334 334 334 331 328 328 329 329 329 330 332 333 331 330 330 329 329 329 327 328 328 328 328 329 328 329 328 327 326
341 340 339 337 337 337 335 336 337 335 333 332 332 332 332 331 332 330 331 334 332 330 330 328 329 333 334 334 332 330 331 331 333 333 333 333 330 328 328 329 330 331 331 331 332 330 329 330 330 330 329 328 328 328 328 328 328 327 327 327 326 326
340 339 339 337 337 336 336 336 336 334 332 331 332 331 331 331 331 330 331 333 331 330 331 330 332 334 333 332 330 329 331 331 332 333 331 331 330 330 330 330 331 332 332 332 332 331 329 329 329 328 329 330 329 329 329 329 328 328 326 326 327 326
338 338 339 337 336 336 336 335 334 333 331 330 331 331 331 331 330 329 328 330 332 331 331 332 333 334 333 333 330 329 331 331 331 331 330 330 330 331 332 332 332 332 332 332 332 331 329 328 328 328 327 329 330 329 330 329 328 328 327 327 327 327
338 338 339 338 336 336 335 335 334 332 331 330 331 330 330 330 328 325 326 331 333 333 333 332 333 334 334 333 330 329 330 331 330 329 329 330 331 331 332 332 332 331 331 332 332 331 330 328 328 328 326 327 329 329 329 328 328 328 328 327 327 327
339 338 338 338 336 335 334 335 334 332 331 331 331 330 331 330 326 325 328 332 333 333 333 332 332 333 333 331 330 329 329 330 332 330 329 329 330 331 331 332 332 331 332 331 330 331 332 329 327 328 326 326 328 328 328 328 328 328 328 327 328 327
339 337 337 337 336 334 334 334 333 331 331 330 330 331 330 330 328 326 330 333 332 331 330 330 330 331 331 330 329 329 328 329 331 331 330 330 329 331 331 332 332 331 331 330 328 330 331 330 328 327 328 328 327 326 326 327 327 328 329 329 328 327
338 336 335 336 335 334 333 333 333 332 330 328 330 331 328 328 327 327 331 333 332 331 331 330 330 330 330 329 329 330 329 330 330 330 331 331 330 331 331 331 331 330 330 329 327 328 329 330 330 329 328 327 326 326 327 327 327 327 328 328 328 328
337 336 335 335 335 335 333 333 333 333 331 330 332 331 327 327 327 327 330 332 331 331 332 331 330 331 330 329 328 328 328 329 330 329 330 330 330 330 330 330 330 329 329 328 327 328 328 329 329 329 329 328 327 328 329 329 328 327 327 328 328 328
337 334 334 334 334 334 333 332 332 332 332 331 331 330 327 327 328 327 328 330 332 332 331 330 330 329 327 326 324 324 325 326 328 329 329 330 330 331 332 331 329 327 328 328 328 328 327 327 328 329 331 329 327 327 329 329 329 328 328 328 328 328
332 330 330 332 333 333 332 332 332 331 331 329 329 329 327 326 325 324 325 329 331 331 330 328 326 325 324 323 322 322 323 324 327 329 330 330 330 331 332 332 329 328 327 327 328 327 325 326 326 327 328 328 326 327 327 328 328 328 328 328 328 328
328 326 326 328 331 333 333 333 331 331 330 328 328 327 325 323 322 323 327 330 331 330 329 326 323 322 321 320 322 323 323 323 326 328 328 329 330 331 331 332 330 328 328 327 327 328 327 326 325 324 326 327 327 328 327 328 328 327 327 328 327 327
327 325 325 325 327 332 333 332 331 330 329 329 329 327 325 323 322 326 330 330 330 330 329 327 325 323 320 319 321 324 324 325 326 326 327 327 328 329 329 330 331 329 328 328 327 328 328 327 326 325 325 327 327 327 327 328 328 326 326 327 327 327
326 325 325 325 326 331 333 332 330 329 328 329 328 326 325 323 324 329 330 328 328 330 329 329 327 324 321 319 320 321 320 322 323 323 327 327 327 329 328 328 330 328 327 327 327 327 327 327 327 326 327 327 327 326 327 328 328 326 326 326 327 327
327 327 325 326 329 332 331 329 329 328 326 326 326 325 325 325 327 329 329 327 328 329 329 329 328 326 325 323 321 321 320 321 323 323 325 325 325 327 326 326 329 328 326 327 326 326 327 326 326 327 328 327 327 328 327 327 328 327 327 326 326 326
328 327 326 328 332 332 330 328 329 329 326 325 325 325 326 327 328 328 328 328 328 328 329 328 328 327 327 324 321 323 325 325 326 326 325 323 323 324 324 326 328 328 328 327 325 325 326 325 326 326 326 326 327 327 327 327 328 327 327 326 326 327

ECMWFFLT2_850_thetae_060.txt.gz
Theta_e
329 330 330 330 328 325 324 322 323 326 329 331 332 333 334 334 334 333 333 333 333 333 334 332 330 329 330 329 323 325 331 332 332 329 328 329 329 328 328 328 327 328 328 328 327 325 321 318 317 320 324 326 329 332 333 334 331 328 322 315 312 311
330 331 332 333 329 326 324 324 327 329 330 331 332 332 333 333 332 332 332 332 332 333 334 332 331 330 329 330 328 328 329 329 332 329 326 328 329 328 328 329 328 328 328 328 327 326 325 323 321 321 324 326 330 333 333 333 332 329 324 317 313 311
331 332 335 336 332 326 323 324 328 330 329 330 332 332 331 332 332 332 331 330 332 333 333 331 331 333 331 330 330 330 328 327 330 328 325 327 329 329 328 329 329 329 328 327 326 325 325 326 325 323 326 328 332 334 333 332 332 330 327 321 315 313
331 334 336 336 334 328 326 328 329 329 329 331 332 331 331 331 332 331 330 329 331 331 331 331 331 333 333 332 332 331 330 328 328 327 325 326 328 329 329 329 329 329 328 328 329 329 327 326 326 326 327 329 331 333 333 332 332 330 326 322 317 315
334 337 337 337 336 330 331 332 330 329 330 330 331 332 331 331 332 331 329 328 330 330 330 330 331 333 333 333 333 332 331 330 330 328 325 324 326 327 327 328 328 328 328 329 332 334 333 329 328 327 327 331 333 333 332 331 332 328 323 322 321 318
338 339 338 338 335 331 334 333 331 332 332 331 331 333 333 331 332 331 329 328 329 331 330 330 331 332 332 333 333 333 332 332 331 328 325 324 324 324 325 327 327 327 328 330 333 334 334 332 331 329 330 333 333 333 333 332 332 328 324 324 324 322
340 338 339 339 336 333 337 336 333 334 334 334 333 333 334 332 332 331 330 330 331 330 329 329 331 332 332 333 333 332 331 330 328 327 326 325 322 320 321 323 324 326 326 329 333 334 332 331 331 331 331 332 332 332 331 331 332 329 325 325 324 323
340 338 340 340 337 336 338 338 336 335 335 335 335 334 334 333 332 332 331 331 331 330 329 330 330 330 331 331 331 332 331 329 329 329 328 328 328 326 325 326 327 326 327 330 332 334 334 332 331 331 331 330 333 332 327 330 332 329 327 326 325 323
340 340 340 338 337 338 338 338 338 337 337 336 336 335 333 332 331 332 332 331 332 331 330 328 328 330 331 331 331 332 332 331 332 332 331 332 332 332 332 332 331 330 331 333 332 334 334 331 330 330 330 328 330 329 324 329 332 330 328 328 327 324
340 339 338 336 337 338 337 337 338 338 337 337 335 334 332 332 332 332 330 331 332 331 329 327 329 332 333 334 334 333 333 332 334 333 332 334 333 333 333 332 332 332 331 331 331 331 330 328 327 328 328 326 326 327 327 331 333 331 330 330 330 327
340 338 336 337 338 337 336 336 337 337 337 336 333 333 333 332 332 331 330 332 332 329 329 328 331 334 334 334 333 331 330 329 331 331 330 333 332 331 331 329 328 328 327 325 327 329 329 329 327 325 326 327 327 329 331 332 332 332 332 330 330 329
339 336 336 337 337 337 336 337 337 337 337 335 332 332 332 332 332 331 330 331 330 329 330 329 330 334 333 332 330 326 325 327 330 331 331 331 330 329 330 328 325 326 328 328 329 331 330 330 329 327 327 328 329 331 332 331 332 332 331 328 327 329
338 335 335 336 336 337 337 337 337 337 335 333 332 333 333 333 333 332 331 330 331 329 329 329 329 333 332 332 330 327 327 329 331 332 332 332 331 330 330 329 327 328 330 331 332 331 330 331 331 329 329 331 330 331 331 330 331 331 328 326 326 327
338 336 336 335 336 338 338 337 337 336 334 332 334 334 334 334 332 332 331 331 331 328 327 329 331 333 333 333 332 330 330 331 331 330 331 332 330 330 331 330 329 330 331 332 332 329 330 331 331 330 330 332 330 330 330 329 330 330 327 327 326 325
338 337 336 336 337 338 338 338 337 336 334 334 334 334 334 333 333 333 332 332 330 327 327 331 334 333 333 333 332 332 331 331 331 330 331 331 330 331 332 331 331 332 332 333 332 329 330 331 330 331 331 331 330 331 330 327 327 327 327 328 326 325
338 337 337 336 337 337 338 337 337 336 336 335 334 334 333 333 333 333 333 331 330 329 329 333 334 331 332 333 332 331 331 331 330 330 330 330 330 332 333 332 332 333 333 333 332 330 331 332 331 330 330 330 330 330 327 325 325 324 325 328 328 326
338 338 338 337 337 337 337 337 338 337 335 335 334 334 334 333 333 334 333 332 331 331 332 333 333 330 331 332 331 331 330 330 330 328 329 330 330 332 333 333 333 333 333 332 332 331 330 331 331 329 330 330 329 329 326 325 325 324 324 327 328 327
339 338 338 338 337 336 335 336 337 336 334 333 333 334 334 334 334 334 334 333 332 332 332 332 332 331 330 330 331 332 330 329 329 328 329 329 330 332 333 333 332 332 332 332 332 331 330 331 331 330 330 329 328 328 326 326 327 326 326 327 328 328
339 339 338 338 337 335 336 336 336 335 334 332 332 333 333 334 334 333 334 334 333 332 332 331 331 331 330 330 333 333 331 329 328 329 329 329 330 332 332 331 331 330 331 333 332 331 331 331 330 329 329 328 328 327 326 327 328 328 327 327 327 327
339 339 338 336 336 336 337 337 335 334 334 332 332 334 334 334 334 334 333 334 333 332 332 332 331 330 330 331 334 333 332 330 329 330 329 330 332 332 331 330 329 329 330 332 332 331 332 332 330 328 328 328 328 327 327 328 328 327 328 327 327 326
340 338 337 336 337 337 336 336 335 333 334 332 331 334 334 333 334 334 334 333 332 331 332 332 331 331 330 331 334 332 331 330 331 331 330 330 332 332 331 329 328 328 329 331 331 332 332 331 330 329 328 328 328 328 328 328 328 327 327 327 327 326
340 337 335 335 336 337 336 335 335 333 334 332 332 333 334 333 334 334 333 332 331 330 331 330 330 331 331 330 331 331 331 330 330 331 331 330 331 330 330 329 328 328 329 331 331 332 331 330 330 329 329 328 328 329 328 327 327 327 327 326 326 325
339 337 336 336 336 336 336 335 335 334 334 333 332 332 333 333 334 334 332 331 330 330 330 329 329 331 331 329 329 331 331 330 330 331 331 330 330 330 329 329 329 328 329 330 331 332 331 329 329 329 330 329 329 329 329 328 327 328 328 326 325 325
339 338 337 336 335 335 335 335 335 334 334 333 333 333 333 333 333 333 332 331 330 328 327 328 329 330 330 330 330 331 331 330 330 330 330 330 330 330 329 329 330 330 329 330 331 332 330 328 329 329 329 330 330 329 329 329 327 328 327 326 325 324
338 338 337 336 335 335 335 335 334 334 334 333 333 333 332 332 332 332 331 331 329 326 325 327 329 331 331 331 331 331 330 329 330 330 329 329 330 330 329 329 329 330 330 330 331 331 329 328 328 329 329 330 330 329 329 329 328 328 327 326 325 324
337 336 336 336 335 335 335 335 333 333 333 333 333 333 332 331 331 331 331 329 327 325 326 328 330 332 333 332 332 330 329 329 330 330 329 329 329 330 330 330 330 329 329 330 331 331 329 328 328 328 328 329 329 329 329 329 328 329 328 326 325 324
335 332 333 333 334 334 332 333 334 333 333 333 331 331 332 331 331 331 330 329 326 325 326 329 331 333 333 332 331 330 329 329 331 330 329 328 329 330 331 331 331 330 329 329 331 331 329 328 327 327 327 327 328 328 329 329 328 328 328 327 326 325
334 332 332 332 333 333 329 330 333 333 333 333 331 330 330 330 330 330 328 327 325 325 328 330 329 331 333 332 331 330 330 329 330 330 329 328 329 330 331 331 331 330 329 330 331 331 329 328 327 327 327 327 328 327 328 329 329 328 328 328 327 326
334 332 331 333 335 334 333 333 334 334 333 332 332 330 330 330 329 327 326 325 325 326 328 327 326 329 333 332 330 330 331 330 330 330 330 330 329 331 331 331 332 330 329 330 330 329 329 329 328 327 327 329 328 327 328 329 328 328 328 328 327 327
334 332 330 333 335 333 332 332 332 333 333 332 331 330 330 330 328 326 325 325 324 325 326 324 327 332 333 332 330 331 331 331 331 331 331 332 331 331 331 330 331 330 329 329 329 328 328 329 328 328 328 329 328 327 328 328 327 328 328 328 328 327
335 333 332 332 330 326 326 326 324 326 330 331 330 329 329 329 328 326 324 325 324 324 325 326 330 332 332 332 331 331 331 331 331 332 331 331 332 332 331 329 329 329 329 329 328 327 327 327 328 328 329 328 327 328 328 327 327 328 328 328 328 328
334 334 333 330 325 322 323 321 319 321 326 330 330 328 328 329 327 324 324 324 323 324 327 328 328 330 332 331 329 329 329 329 330 331 330 331 331 331 330 329 329 328 327 328 328 327 327 327 327 328 328 328 328 328 329 328 327 327 328 328 328 328
335 333 331 326 323 322 321 320 319 321 323 328 330 329 329 330 327 324 324 324 322 324 326 325 326 330 331 328 325 326 326 326 328 329 330 331 331 330 330 330 328 328 327 328 328 327 326 326 327 327 328 327 327 327 328 328 328 327 328 328 328 328
333 332 328 324 322 321 319 319 319 318 320 325 330 330 331 330 326 325 324 323 323 326 326 324 327 330 327 324 323 324 324 323 326 329 330 329 330 331 330 329 328 328 329 329 328 327 326 326 326 327 326 327 327 325 326 328 327 327 327 328 328 328
331 329 326 324 323 321 319 321 322 320 319 324 328 330 330 328 326 325 323 322 325 328 327 328 330 329 325 323 323 323 324 325 326 328 329 328 328 329 329 328 328 328 328 329 328 327 327 327 327 327 325 325 326 325 326 327 327 327 327 327 328 327
327 325 325 324 325 325 324 325 328 327 324 326 327 327 327 325 324 323 322 324 327 328 328 330 331 328 323 322 322 322 324 325 324 325 326 328 328 329 328 327 327 327 327 327 327 327 327 327 327 327 325 325 326 326 326 326 326 326 327 327 327 326
326 326 326 326 327 330 329 330 332 331 329 328 327 326 326 324 323 322 323 326 327 327 329 330 330 326 322 322 321 322 324 323 322 323 324 326 327 328 328 327 327 327 326 325 326 326 327 327 327 327 326 326 327 326 326 326 326 327 326 326 327 326

ECMWFFLT2_850_thetae_063.txt.gz
Theta_e
329 328 329 329 329 327 328 328 323 323 325 324 328 332 335 337 338 336 333 333 334 333 332 332 333 333 329 322 322 329 331 332 333 329 326 327 326 324 324 323 322 322 322 319 316 319 325 328 329 332 332 332 332 331 330 331 329 326 321 315 311 311
330 331 331 330 329 326 327 326 322 322 324 326 331 334 336 337 337 335 333 333 333 333 332 331 331 332 331 323 320 327 331 332 332 328 326 328 327 326 325 325 324 325 326 325 321 319 322 325 327 329 331 333 332 329 328 331 329 326 324 318 312 312
331 331 331 330 328 327 327 323 320 324 326 329 333 334 336 336 335 334 333 333 332 332 332 331 330 330 330 324 321 328 332 332 331 328 327 328 328 327 327 326 326 326 327 327 326 324 323 325 326 328 331 334 332 330 330 332 331 327 324 320 314 313
330 330 330 331 329 328 326 322 322 328 329 331 333 334 335 335 334 334 333 332 331 332 333 331 331 332 330 327 326 329 330 329 330 328 326 328 328 328 328 327 326 326 327 327 327 326 326 326 327 329 332 333 332 332 332 332 331 328 324 321 317 315
330 330 331 331 330 328 324 323 326 329 331 331 333 333 333 334 333 332 332 330 330 333 333 332 333 333 331 329 329 329 327 326 328 326 324 327 329 328 328 328 327 327 327 329 330 328 326 327 327 329 331 332 333 332 332 332 331 328 324 323 320 318
330 330 333 331 330 328 324 324 326 327 329 331 332 331 332 333 332 332 331 330 331 333 332 332 333 334 333 331 331 330 328 326 326 324 324 326 327 327 328 328 327 327 328 330 331 329 329 330 329 329 330 333 334 332 331 332 332 329 324 324 323 320
331 331 334 332 330 327 326 326 326 326 327 329 331 330 331 331 331 332 331 330 331 331 331 331 332 333 333 332 332 331 330 329 327 325 323 324 324 326 327 328 327 327 329 328 329 331 333 332 331 331 331 333 334 332 332 331 332 330 324 322 324 322
332 332 334 334 331 328 330 329 328 328 327 329 330 330 332 331 331 332 330 329 330 331 331 331 332 332 333 332 332 332 330 328 327 325 324 323 322 323 324 327 327 326 328 328 329 332 333 332 332 331 330 332 333 332 331 330 329 328 324 321 323 323
333 334 334 335 333 331 333 332 331 330 329 331 331 331 333 331 331 332 330 329 330 331 331 331 332 332 332 332 332 330 327 326 325 324 325 323 321 324 325 325 326 326 328 329 331 332 332 333 332 331 331 331 333 333 331 328 326 325 325 324 324 324
335 336 336 336 334 332 334 334 333 332 331 332 332 332 332 332 332 332 330 329 331 331 330 330 331 331 331 331 330 329 328 327 327 326 329 327 324 328 329 326 326 328 331 332 332 333 333 333 331 331 332 332 333 333 330 327 325 325 326 327 327 326
338 338 338 338 335 333 335 335 334 333 333 333 333 332 332 333 333 332 331 330 331 331 330 330 330 331 332 332 331 331 331 331 331 331 332 332 329 332 332 330 330 331 333 333 333 332 332 331 330 331 331 331 332 330 328 327 326 325 325 326 328 327
340 339 338 338 336 335 337 337 335 335 334 334 334 333 332 333 332 332 332 331 332 332 331 329 329 332 333 333 333 333 332 331 333 332 333 334 333 333 332 331 332 332 332 331 332 331 330 329 330 331 329 329 330 329 328 328 326 325 324 326 327 328
341 339 338 339 337 337 337 337 337 336 336 335 334 332 332 332 331 331 332 331 332 332 330 329 332 334 334 334 334 334 332 330 331 331 331 332 332 331 330 329 329 329 329 328 329 330 330 331 331 330 329 328 328 329 329 328 327 326 326 326 326 327
341 340 339 338 337 338 338 337 337 336 336 335 334 333 332 332 331 332 331 331 332 331 329 329 332 334 334 334 333 332 329 326 329 331 330 330 331 330 330 331 327 327 329 329 330 331 331 331 331 330 329 328 328 328 329 328 329 328 326 327 326 327
341 340 339 338 338 339 338 337 335 334 335 335 334 332 331 332 332 331 331 331 332 331 329 329 331 332 333 332 332 331 327 326 329 331 330 331 332 331 332 332 328 327 329 330 330 331 331 331 330 330 330 330 329 328 328 327 329 329 327 327 327 327
340 340 339 338 338 338 338 336 334 333 335 334 332 332 332 331 332 331 331 331 331 330 330 330 330 331 331 331 331 332 330 329 330 330 330 331 331 331 332 332 328 328 330 330 330 330 330 330 330 330 330 331 330 328 328 328 329 328 328 329 328 327
340 340 338 338 338 338 337 335 333 334 334 333 332 333 333 332 332 332 332 331 331 330 329 329 330 330 331 330 328 330 332 331 330 330 330 330 330 330 333 332 329 330 331 331 330 331 331 330 330 330 330 331 330 329 329 329 328 326 326 328 329 327
340 339 338 339 338 338 337 333 333 334 333 333 334 334 333 333 332 331 332 332 330 330 328 328 329 329 330 329 325 328 333 332 330 330 329 329 330 330 333 332 329 331 332 331 330 331 331 330 330 329 329 331 330 329 329 329 328 326 325 327 328 328
339 338 338 339 338 337 337 335 334 335 334 334 334 334 333 332 332 332 332 331 330 330 329 328 329 328 328 327 328 331 332 331 330 329 328 329 329 330 333 332 330 331 332 332 331 331 330 329 329 329 329 330 329 329 329 329 328 326 325 327 328 328
336 338 339 338 337 336 337 335 335 335 335 334 333 333 334 333 333 333 332 331 331 330 330 329 328 326 326 326 330 333 332 331 330 328 328 329 329 329 331 332 331 332 332 332 332 331 330 330 329 329 329 329 329 329 329 329 328 328 327 327 328 328
338 339 338 336 334 335 336 335 335 335 334 333 333 333 334 334 333 333 333 332 331 330 329 328 329 327 326 328 332 334 332 331 329 328 329 329 329 330 331 332 331 331 331 331 331 331 331 330 328 328 329 328 327 328 329 328 328 328 327 327 327 328
340 338 335 331 332 333 334 334 333 333 332 332 333 333 333 333 333 333 332 331 330 330 328 327 329 329 329 330 331 333 333 331 329 329 329 329 330 331 332 331 330 329 330 330 330 332 331 330 329 328 328 328 328 328 328 328 327 327 327 327 326 327
337 335 331 330 331 330 331 331 331 332 332 332 333 332 333 333 333 333 332 331 330 329 329 329 329 329 330 330 330 332 333 331 329 329 330 330 331 331 331 331 329 328 329 331 331 331 331 330 329 328 327 328 328 328 328 328 327 327 327 326 326 326
336 334 331 332 332 329 329 331 333 333 332 332 332 332 333 333 333 334 334 333 331 329 330 331 330 329 330 329 329 331 332 331 330 329 330 331 331 330 330 329 329 328 329 330 331 331 331 330 329 328 327 328 328 327 328 328 328 327 326 326 325 325
334 333 334 333 333 332 331 333 333 333 332 332 332 332 332 332 332 334 334 334 332 330 331 331 331 330 330 330 329 331 332 331 330 329 330 331 330 331 330 329 329 329 329 329 330 330 331 330 329 329 328 328 328 328 328 327 327 328 327 326 325 324
329 330 335 335 334 333 332 333 333 333 331 331 332 332 332 332 332 332 333 334 333 332 331 331 331 329 329 330 328 328 330 332 331 329 330 331 330 330 330 329 329 330 330 330 330 331 330 329 330 329 328 328 328 328 328 326 327 327 327 326 325 324
326 327 333 334 335 334 332 332 333 333 331 329 331 332 332 332 332 332 332 332 332 332 330 329 329 328 328 329 328 325 326 330 331 330 330 331 330 330 330 330 330 330 330 330 330 331 329 328 329 329 329 329 328 328 328 326 326 326 326 326 325 325
326 326 329 331 333 333 333 333 332 333 332 330 331 332 332 332 332 332 331 332 331 330 328 327 327 328 329 330 330 327 325 328 331 330 331 330 329 330 331 331 331 330 330 329 330 331 329 327 328 328 329 329 327 328 328 327 326 325 325 325 326 326
326 326 327 329 331 331 332 331 330 330 330 329 330 332 332 332 331 331 331 331 331 329 327 326 328 330 331 331 330 328 327 329 331 331 331 330 329 330 331 331 331 331 329 329 329 330 329 327 326 326 328 327 326 327 328 327 327 326 324 325 326 326
327 327 327 327 327 328 329 329 328 327 324 323 325 328 331 332 330 330 331 331 331 329 326 326 330 331 331 330 329 328 329 330 330 330 331 329 329 331 331 331 332 331 329 328 329 329 329 328 326 326 326 326 326 327 328 328 327 327 325 324 325 325
330 328 327 327 326 327 327 328 326 323 320 319 320 323 328 330 330 329 330 331 330 328 326 328 330 330 329 329 329 328 330 330 330 330 331 330 330 330 330 331 331 331 330 329 329 328 328 328 327 326 326 327 326 326 326 327 327 327 327 325 324 325
331 330 328 327 327 328 327 325 323 323 324 322 319 321 326 328 329 329 328 328 327 326 327 328 328 328 329 330 328 329 330 331 330 330 330 331 331 330 330 330 330 331 330 329 329 328 327 328 328 327 327 328 327 326 326 326 326 327 327 327 325 325
332 331 328 327 329 330 327 324 324 327 329 329 323 321 326 327 327 328 327 326 326 325 325 326 328 330 330 329 328 330 331 330 331 331 330 330 331 331 331 330 329 330 329 328 328 327 327 327 327 327 327 328 327 327 327 327 327 327 327 327 326 325
333 332 330 328 329 329 328 328 329 329 328 330 330 326 327 327 326 328 327 325 324 324 325 327 329 330 328 327 328 330 329 330 331 331 330 330 331 331 330 330 329 329 328 327 328 327 327 327 327 327 328 328 327 327 328 328 327 327 327 327 327 327
335 333 332 331 331 331 331 331 332 329 327 329 331 330 329 327 327 327 325 324 323 324 327 328 329 329 327 326 327 326 326 328 329 329 330 330 330 330 330 330 329 328 327 328 328 327 327 326 326 327 328 328 326 326 328 328 327 327 327 327 327 327
335 335 333 333 332 333 333 331 331 329 328 329 331 331 330 327 327 327 324 323 323 324 326 326 327 328 325 324 324 323 323 325 326 328 329 328 329 329 330 329 328 328 328 328 328 327 327 326 326 327 326 326 326 326 326 327 327 327 327 327 327 327
334 334 334 332 332 333 333 331 330 330 330 330 331 331 330 328 328 327 324 323 324 326 327 326 327 327 323 322 322 322 324 324 325 327 328 328 328 329 329 328 328 327 327 327 328 327 327 327 327 327 326 325 325 326 326 326 327 327 327 327 327 327

ECMWFFLT2_850_thetae_069.txt.gz
Theta_e
327 326 328 331 333 335 338 339 338 337 337 336 335 333 331 329 330 332 334 335 335 334 333 331 323 320 323 323 324 325 325 324 320 317 317 314 310 311 319 327 330 331 332 331 329 329 330 331 330 328 327 326 325 323 320 318 315 313 312 311 311 311
325 325 325 327 330 333 336 337 337 336 337 336 334 333 331 331 332 334 335 336 335 331 330 330 324 320 323 326 327 328 327 326 322 318 318 315 311 314 320 327 330 332 332 331 329 328 329 330 330 328 327 326 325 324 322 320 318 316 315 314 313 313
325 324 324 325 327 332 334 336 337 336 337 335 333 333 332 332 334 335 336 335 334 329 328 327 323 320 323 328 330 330 329 328 324 320 320 317 313 316 322 327 330 332 332 332 330 328 328 328 328 327 326 326 326 326 325 324 322 320 318 316 315 314
326 325 325 325 326 329 331 334 336 336 337 335 333 333 331 333 336 336 336 335 333 331 329 329 328 324 322 328 332 332 331 329 325 321 321 320 315 316 322 327 329 331 332 332 330 329 328 327 326 326 326 326 327 328 329 328 325 322 321 320 319 317
327 326 325 325 325 326 328 331 334 335 336 334 333 332 331 335 337 336 335 334 333 332 331 331 332 329 322 325 331 332 331 330 326 323 322 322 319 316 319 325 328 331 332 332 330 329 328 325 325 326 327 327 328 329 330 329 327 324 323 322 321 320
328 326 326 324 324 324 326 330 333 335 336 333 332 331 333 336 337 335 334 333 333 332 331 330 331 331 325 322 327 330 331 331 327 325 324 323 323 319 317 320 324 329 331 331 329 328 327 326 325 326 328 328 329 330 329 329 329 326 324 323 323 322
329 328 328 328 328 328 328 331 335 335 334 332 331 331 334 336 336 335 333 333 332 331 331 330 329 330 327 321 324 329 331 331 328 327 326 324 325 324 321 318 320 326 330 330 329 327 327 326 325 326 328 329 330 330 329 329 330 327 326 325 324 323
329 328 329 330 330 330 329 331 333 334 334 331 330 333 335 336 336 335 333 332 332 331 331 330 330 329 327 322 324 330 331 331 329 327 327 326 325 326 326 323 321 324 328 329 329 327 327 326 325 327 329 330 330 330 330 330 330 329 327 326 325 324
329 328 330 330 330 329 328 327 328 331 332 330 330 334 336 336 336 334 333 332 331 332 331 330 331 330 327 325 327 330 330 330 330 327 327 327 327 327 327 326 325 325 326 328 328 329 329 327 327 329 330 330 330 330 330 330 330 329 327 326 325 324
328 329 330 331 331 330 329 327 325 325 328 329 330 334 336 335 335 334 333 332 331 331 331 330 332 331 330 329 328 328 327 328 329 327 327 328 327 328 328 326 327 327 329 330 329 330 330 329 329 330 330 331 331 330 330 331 330 329 327 326 326 325
328 329 330 331 331 330 329 328 326 323 325 329 331 333 333 330 332 334 332 331 330 331 331 331 332 332 331 331 330 328 327 327 327 326 327 329 328 328 328 327 327 328 330 329 327 328 329 329 329 330 331 330 331 331 331 331 330 328 327 326 326 326
328 330 330 331 331 331 330 329 329 327 328 331 331 332 330 326 330 333 332 331 330 331 331 331 332 332 331 332 331 329 327 327 326 325 326 328 328 328 328 328 328 329 328 327 326 326 326 328 331 332 331 330 331 332 332 331 329 328 327 326 326 325
329 329 331 331 331 331 330 330 330 330 329 329 330 331 330 328 331 331 330 331 330 330 331 331 332 332 331 332 331 328 326 326 326 326 326 325 327 328 327 328 329 329 328 327 327 326 325 328 332 332 330 329 329 330 331 331 329 328 327 326 326 325
331 329 330 330 331 330 331 331 330 331 330 328 328 329 331 331 331 330 330 331 330 330 331 331 331 331 331 331 330 326 325 327 328 328 327 325 325 327 326 327 328 328 328 328 327 328 328 329 331 330 328 329 329 330 330 330 329 329 328 327 327 325
333 331 331 330 331 330 330 331 331 331 332 331 329 330 332 331 332 331 330 331 330 330 331 330 330 331 331 330 328 326 326 328 330 330 328 327 326 326 326 327 327 328 329 329 330 330 330 330 330 329 329 330 330 330 330 330 330 329 329 328 327 326
335 336 336 332 332 332 331 332 332 331 332 332 330 330 332 332 332 332 332 332 330 330 331 330 330 331 330 329 329 328 327 328 330 330 329 328 328 327 327 328 328 329 329 330 331 331 331 330 330 329 330 330 330 330 330 330 330 329 329 328 328 327
337 338 337 334 332 332 332 332 332 332 333 333 331 331 331 331 332 333 333 333 331 331 331 330 330 330 329 330 331 330 329 328 329 330 329 329 331 329 328 329 330 330 330 330 332 331 330 330 329 330 330 330 330 330 330 330 330 329 329 328 328 327
336 336 336 335 333 333 333 333 333 333 333 333 332 332 332 332 333 333 334 333 332 331 331 331 330 329 330 332 332 332 331 329 328 330 330 330 332 331 330 330 331 330 329 330 331 330 329 329 329 330 331 330 330 330 330 330 329 329 329 328 328 328
334 333 334 333 333 334 334 333 333 334 334 334 333 333 333 334 334 334 334 333 332 331 331 332 330 329 330 332 332 331 330 329 328 329 330 330 332 332 331 331 331 331 329 329 331 331 330 330 330 330 330 330 330 330 329 329 329 329 328 328 328 328
331 332 334 334 333 333 334 334 333 334 335 334 334 335 335 335 334 334 333 332 332 332 332 332 331 329 330 332 332 331 329 328 328 328 329 329 331 331 330 330 331 330 329 329 330 331 331 330 330 330 330 330 330 330 329 329 329 329 328 328 328 328
328 332 335 334 330 329 331 334 333 333 334 334 335 336 335 335 334 334 333 332 332 332 332 332 331 330 329 331 332 331 330 328 329 329 329 327 328 330 330 330 331 331 330 330 330 330 330 330 330 330 330 330 329 329 329 329 329 328 328 327 327 327
328 331 334 332 325 325 327 329 331 332 334 334 334 335 335 334 333 332 332 332 332 332 332 332 332 330 330 330 331 331 331 330 330 330 329 327 328 329 330 331 331 331 331 331 330 330 330 330 329 329 329 329 329 328 328 328 328 328 328 327 327 327
328 328 333 331 324 325 326 326 328 330 332 333 333 333 334 333 332 332 332 332 332 332 332 331 331 331 330 330 331 331 331 330 329 330 329 328 329 329 330 331 331 330 331 331 330 330 330 329 329 329 328 327 328 327 326 327 327 327 327 327 327 327
328 327 330 329 326 326 327 328 329 329 329 331 332 333 334 333 332 332 333 333 332 332 332 332 332 331 330 329 330 331 331 330 329 330 330 329 329 329 330 331 331 330 330 329 330 330 330 329 329 329 328 327 326 325 326 326 326 326 327 327 327 327
329 329 327 326 326 328 330 331 331 330 330 331 333 333 333 332 332 333 333 333 332 332 332 332 332 331 330 329 329 330 331 330 329 329 329 329 329 329 329 329 330 329 329 329 329 329 329 329 329 329 328 327 325 324 326 326 325 326 326 326 327 326
331 330 327 325 327 329 332 332 330 330 331 331 332 332 332 332 332 333 333 333 332 332 332 332 332 331 330 329 330 330 330 330 330 329 329 329 328 328 328 328 329 329 329 328 328 328 328 328 329 330 329 327 325 325 325 326 325 326 326 326 326 326
332 331 327 326 330 331 332 331 328 327 328 328 330 331 331 332 332 333 333 333 332 332 332 332 331 330 330 330 330 329 328 328 330 330 330 329 328 328 328 328 329 329 329 328 327 327 327 328 329 329 329 328 326 326 326 326 325 325 326 325 325 325
333 332 328 328 331 332 333 333 331 330 330 329 329 331 331 331 332 333 333 333 332 332 333 332 331 331 330 329 330 329 328 328 330 331 329 329 328 328 329 329 330 330 329 328 327 327 327 328 328 329 329 328 327 327 327 327 325 323 324 325 325 325
334 335 332 329 329 331 332 333 333 333 333 333 332 332 332 331 331 332 332 333 332 333 333 332 332 331 329 329 329 330 329 329 330 330 329 328 328 328 330 330 329 329 328 327 327 327 327 328 328 328 328 328 327 327 327 328 326 324 323 324 325 324
334 337 335 332 328 327 329 331 332 333 334 334 334 333 332 332 331 331 332 333 333 333 333 332 332 331 330 329 330 329 329 329 330 329 328 327 328 329 330 330 328 328 328 327 327 327 327 329 329 329 328 327 327 327 327 328 327 325 324 324 324 324
335 337 336 335 332 329 328 330 333 334 334 333 334 334 333 332 332 331 332 332 333 333 333 332 332 332 331 330 330 328 328 329 330 329 326 326 328 329 330 329 328 328 328 327 327 328 328 329 330 330 329 327 327 327 327 327 326 326 325 324 323 323
336 335 334 335 335 332 330 329 332 333 333 332 332 333 334 333 332 332 332 332 333 333 332 332 332 332 331 330 330 329 329 329 330 329 326 326 328 329 329 329 328 328 328 328 328 328 329 329 330 330 329 328 327 328 328 327 326 326 326 325 324 323
335 334 333 334 334 332 331 330 330 332 333 333 332 333 334 333 333 332 331 331 332 332 332 332 333 332 330 330 329 329 329 330 330 329 326 327 329 330 330 329 328 328 328 328 328 329 329 329 330 329 328 328 328 328 328 327 326 326 326 325 325 323
334 334 334 334 333 332 332 332 332 332 333 334 333 333 334 333 333 333 332 331 331 330 330 331 333 332 330 329 328 327 329 330 330 329 327 327 329 330 330 329 328 329 329 329 329 328 328 329 330 329 328 327 327 327 327 326 326 326 326 326 325 324
331 332 333 333 333 332 332 333 333 332 333 334 333 334 334 334 334 334 332 331 331 330 328 329 332 333 331 329 327 327 329 331 331 330 328 327 329 329 329 329 328 329 330 330 329 328 328 329 329 329 328 327 327 327 327 326 326 326 326 326 326 325
330 330 331 332 332 331 331 332 331 330 331 333 333 333 333 333 333 334 332 330 330 331 330 328 330 332 332 329 326 327 330 331 331 330 328 329 329 329 329 328 328 329 330 330 329 328 328 329 329 328 328 327 327 326 326 327 327 326 326 326 326 326
330 330 330 330 330 331 331 331 330 329 331 333 334 333 332 332 332 333 332 329 328 330 331 330 328 330 331 329 326 328 330 331 331 330 329 330 330 329 328 328 328 329 329 330 329 329 329 328 328 328 328 328 327 327 327 327 327 326 326 326 326 327

ECMWFFLT2_850_thetae_072.txt.gz
Theta_e
335 336 337 339 339 339 340 339 336 334 334 335 333 333 331 328 329 332 333 333 334 333 328 326 328 329 324 320 321 322 320 318 314 310 309 312 317 323 324 320 320 325 328 328 329 329 327 325 324 323 322 321 319 318 316 314 314 313 313 313 313 314
331 334 336 338 339 340 340 339 337 335 336 335 334 334 329 328 330 332 334 334 335 335 331 327 325 327 326 323 325 325 322 319 315 312 309 311 317 323 325 322 319 323 327 328 329 329 327 325 323 322 323 323 322 320 319 318 317 317 316 316 316 316
329 333 336 338 339 339 340 339 337 336 336 336 335 333 329 329 332 333 334 335 335 334 333 330 324 325 326 325 328 328 324 320 317 314 310 312 318 323 326 324 320 321 325 327 329 328 326 325 323 322 323 325 325 323 322 320 320 321 320 320 319 318
329 329 331 335 336 337 338 339 338 336 336 336 335 332 330 331 332 333 334 335 334 331 330 329 327 326 326 327 329 329 326 322 318 315 310 312 318 325 328 328 325 322 324 327 328 328 326 323 321 322 323 325 327 326 325 323 322 322 322 322 321 321
328 327 326 328 330 332 335 337 337 336 336 335 334 333 332 332 332 334 335 335 333 330 328 327 327 327 326 329 331 329 328 324 319 316 312 312 318 326 330 330 329 325 324 326 328 328 327 324 322 323 323 324 326 327 327 327 325 324 323 324 323 323
328 327 326 326 326 329 333 335 335 334 335 335 334 333 333 332 333 335 336 335 333 331 329 328 328 326 324 329 332 330 329 326 321 318 313 313 321 328 331 331 331 328 325 326 328 328 327 327 326 325 324 323 325 326 327 328 327 326 326 325 325 324
329 329 328 326 325 328 330 331 333 334 336 335 333 333 332 331 334 336 335 335 333 332 331 329 330 329 325 326 330 331 330 328 323 320 316 315 323 329 331 331 332 330 326 327 328 327 326 326 327 328 326 324 324 326 327 328 328 328 327 326 325 324
330 331 330 329 327 326 327 327 330 332 333 333 332 331 330 331 335 336 335 334 333 332 332 330 330 331 329 326 328 331 331 329 325 323 319 316 323 330 331 331 332 331 328 327 328 327 325 326 326 328 328 327 327 327 328 329 329 328 327 325 324 324
330 330 330 330 328 326 326 325 326 328 328 330 330 329 329 332 335 336 334 333 333 332 332 331 329 330 331 327 327 331 332 330 327 324 323 319 320 326 330 331 331 331 329 327 327 326 325 325 326 327 329 329 329 329 329 329 329 328 326 325 325 324
330 329 329 328 328 328 329 326 324 325 325 327 327 326 328 332 335 335 335 333 333 332 331 331 330 330 330 326 325 330 332 331 328 326 325 324 320 321 326 330 331 331 329 327 326 325 324 326 327 328 329 330 330 330 330 330 330 328 326 325 325 324
330 330 329 329 329 330 331 328 326 325 325 326 325 323 327 332 333 335 335 334 332 331 331 331 331 331 329 325 325 330 332 331 330 327 326 327 325 321 320 325 329 330 329 327 326 325 326 328 330 329 329 329 330 330 331 331 330 328 326 326 325 324
331 331 330 330 330 331 330 329 328 326 326 326 324 323 327 331 333 335 334 333 333 331 330 330 331 332 330 328 328 329 329 328 329 328 326 327 328 326 322 322 326 328 328 327 327 327 328 329 330 330 330 330 330 329 330 331 330 328 327 326 325 325
332 332 329 329 330 330 330 330 329 327 326 326 323 323 326 331 333 332 331 332 332 331 330 330 330 332 331 330 330 329 328 327 327 327 326 327 329 329 327 325 326 328 328 328 329 328 328 327 328 329 330 330 329 328 329 330 330 329 327 326 326 325
331 330 330 331 330 330 330 330 330 329 328 327 325 325 326 330 330 326 326 331 332 331 330 330 330 332 332 332 331 330 329 327 327 326 325 327 329 329 329 328 328 329 329 329 328 327 327 326 327 329 329 329 328 329 329 330 330 329 328 327 326 325
332 333 333 332 331 330 330 330 330 329 329 329 328 327 327 328 328 324 325 331 332 331 330 329 330 332 332 332 332 330 329 327 326 325 325 327 329 328 329 329 329 330 329 329 328 327 327 328 328 329 329 328 329 329 330 330 330 330 329 327 326 325
334 335 335 332 331 330 330 330 330 330 329 330 329 328 328 327 327 326 328 331 332 331 330 329 330 331 332 332 332 330 328 327 326 325 325 326 328 328 329 330 329 329 329 328 328 327 328 329 329 330 329 329 329 330 330 330 330 329 329 328 327 326
335 336 335 333 332 330 330 329 330 330 329 329 330 329 328 327 328 329 330 331 332 332 330 329 330 331 332 332 332 329 328 328 327 326 325 325 325 326 328 329 329 328 328 328 328 328 329 330 330 330 329 329 330 330 330 330 330 330 329 328 327 326
335 336 336 335 334 332 330 329 330 331 330 329 329 330 330 329 329 330 330 330 331 332 330 329 330 330 331 332 331 329 328 329 329 327 327 326 325 325 327 328 328 328 328 329 329 330 330 331 330 329 329 329 330 330 330 330 329 329 329 329 328 327
336 336 336 335 335 334 332 330 331 331 331 330 329 331 332 331 330 330 330 329 331 332 331 330 330 330 330 331 330 329 329 329 329 328 328 328 327 327 328 328 329 329 329 330 330 331 331 331 330 329 329 330 330 330 330 330 329 329 329 329 328 327
334 335 336 336 336 335 333 332 332 332 332 331 331 332 333 332 331 330 329 328 330 332 332 331 330 330 330 331 331 331 331 330 329 326 327 329 328 329 330 329 329 329 331 331 330 331 331 330 330 330 330 330 330 330 329 329 329 329 329 328 328 327
331 332 334 335 336 336 335 334 333 332 332 332 332 333 333 333 332 330 329 330 331 332 332 331 331 331 330 330 331 332 332 332 331 326 326 329 329 330 331 330 330 330 331 331 331 330 329 330 331 330 330 330 330 329 328 328 328 329 328 328 327 327
331 330 330 332 335 336 336 336 334 332 333 332 332 332 331 331 332 331 330 331 332 332 331 331 331 331 330 330 331 333 332 332 332 328 325 329 330 331 331 331 331 331 331 331 331 329 328 330 331 330 329 329 328 328 328 327 327 328 328 327 327 327
329 328 329 331 333 335 336 336 334 333 333 333 332 332 330 329 331 332 331 331 332 332 331 331 331 331 331 330 330 332 332 331 331 328 326 328 330 331 331 331 331 330 331 331 330 330 329 330 330 330 329 328 327 328 328 327 326 327 327 327 326 327
328 328 330 331 333 334 335 336 335 333 333 333 333 332 331 331 331 333 332 332 332 331 331 331 331 331 331 330 329 330 331 331 331 329 328 329 330 330 331 331 331 330 330 330 330 330 330 330 330 329 329 328 326 327 326 326 327 326 326 326 326 327
333 333 333 333 333 333 335 335 334 334 334 333 333 333 332 332 332 333 334 333 332 331 331 331 332 332 332 331 330 329 330 331 331 331 330 330 330 330 330 330 330 329 329 330 330 330 330 330 330 329 328 327 326 326 325 325 326 326 325 325 326 326
338 337 337 335 334 334 335 335 335 333 333 334 333 333 333 333 333 333 334 333 332 331 331 332 332 332 332 332 331 330 330 331 331 331 331 330 330 330 330 329 329 329 330 329 330 330 330 329 329 329 329 328 326 325 324 324 324 324 325 324 325 326
337 338 337 336 335 334 334 335 335 333 333 333 332 333 334 334 334 334 334 333 332 332 332 332 332 332 332 332 332 331 330 330 331 331 331 330 330 330 329 328 328 329 330 330 330 330 330 329 329 329 329 329 328 326 325 325 324 324 325 325 324 325
335 336 336 335 334 334 334 334 334 333 334 333 332 333 335 335 335 335 334 333 332 332 333 332 332 332 332 332 332 331 331 330 331 331 330 330 330 329 329 328 328 329 329 329 330 330 329 329 328 328 329 329 328 327 326 326 326 324 324 324 324 324
333 334 334 334 334 333 334 334 333 333 334 333 333 333 334 334 334 334 334 333 332 333 333 333 332 332 332 333 332 331 330 330 331 331 330 329 329 329 329 329 328 328 328 330 330 330 329 328 327 327 328 329 329 327 326 327 327 325 323 323 324 324
332 333 332 334 334 334 334 334 334 334 334 334 333 333 333 333 333 333 334 333 333 334 334 333 333 332 333 332 332 331 331 331 331 330 330 329 330 330 329 329 328 328 329 330 330 330 329 328 328 328 329 329 328 328 327 326 327 326 324 323 323 324
332 332 332 333 334 335 334 333 334 334 334 333 333 333 333 333 333 333 334 333 333 334 333 332 332 331 332 332 331 331 331 331 331 330 329 329 331 330 329 328 328 328 329 330 329 329 328 328 328 329 329 329 328 328 327 326 327 327 326 325 323 323
331 332 332 333 334 334 334 333 333 333 334 334 333 333 333 333 333 332 333 334 334 333 332 332 332 331 331 331 331 332 331 330 331 330 329 330 331 330 328 329 329 329 329 329 329 329 328 328 329 329 329 329 329 328 327 327 327 327 326 326 324 323
331 331 332 333 333 333 333 333 333 333 333 334 333 333 333 333 333 332 333 334 333 333 332 332 332 331 331 331 332 331 330 330 330 330 330 331 331 329 329 329 330 329 330 329 329 329 328 328 328 329 329 329 329 328 328 327 328 327 326 326 325 324
331 330 331 332 332 333 332 332 332 332 333 333 332 332 331 332 332 332 332 332 331 331 331 331 332 331 331 331 331 331 330 330 331 330 329 330 330 329 329 329 330 330 330 329 329 328 328 328 329 329 329 330 329 328 327 327 328 327 326 326 326 325
330 330 330 330 330 331 332 332 332 332 332 331 330 331 331 331 331 331 330 329 328 328 330 331 332 332 332 331 331 331 330 329 330 329 328 329 329 329 328 328 328 329 329 328 328 328 328 328 329 329 329 329 328 327 327 327 327 327 326 326 326 326
328 328 329 329 329 329 330 331 331 331 332 330 329 330 330 330 331 330 328 327 327 329 329 329 330 331 331 331 331 331 330 328 328 329 328 329 329 329 329 328 328 328 329 328 329 328 328 329 329 328 329 329 327 326 326 327 327 326 326 326 326 327
328 328 328 329 328 329 328 329 330 329 331 330 329 329 328 329 331 330 328 325 326 328 327 326 328 330 331 331 331 331 331 329 327 327 327 329 330 329 329 329 329 329 328 328 329 329 329 329 328 328 328 328 327 326 326 326 327 326 326 326 326 326

ECMWFFLT2_850_thetae_075.txt.gz
Theta_e
339 339 339 339 338 338 337 334 331 331 332 333 334 333 330 331 334 335 334 332 331 331 332 332 328 323 318 318 318 314 311 312 314 319 319 318 320 322 323 323 325 326 327 327 325 322 321 321 320 319 318 317 316 316 316 316 317 318 318 317 316 314
338 339 339 339 340 340 339 338 336 334 333 334 335 333 331 333 335 336 335 335 334 333 333 333 333 329 321 318 321 317 313 311 311 316 319 319 320 322 323 323 325 326 326 327 325 322 321 321 322 322 321 319 318 318 318 319 320 320 320 319 318 317
338 338 338 338 339 339 340 339 338 337 336 336 336 334 332 334 335 335 336 336 335 334 332 332 333 331 324 320 321 321 316 312 310 312 318 321 320 322 324 324 327 328 326 327 326 323 321 320 322 325 324 323 321 321 321 321 321 322 322 322 321 320
336 335 334 335 336 337 338 339 339 338 337 336 337 335 334 335 334 334 335 334 335 334 334 333 331 329 327 324 323 323 319 315 311 310 316 321 321 322 324 326 328 329 328 327 326 324 321 319 322 325 327 326 325 324 323 323 323 324 324 324 323 322
333 332 331 331 331 333 335 336 337 338 337 337 337 336 334 333 333 334 334 334 334 334 334 333 331 331 331 328 325 324 321 317 313 310 314 319 321 322 324 326 328 329 329 329 327 324 321 320 322 324 326 326 326 325 325 325 326 326 325 324 324 323
332 332 330 329 329 331 333 335 336 337 337 336 336 335 333 333 334 334 333 334 334 333 332 331 331 333 333 330 327 326 324 319 315 311 312 318 322 323 324 326 329 329 330 330 328 325 322 321 322 323 324 325 325 325 326 327 327 326 325 324 324 323
334 332 329 328 328 329 331 332 334 335 335 334 335 335 334 334 333 332 333 335 335 333 332 330 330 332 332 331 328 327 326 322 317 312 312 318 323 325 327 328 329 329 330 331 330 328 324 322 323 323 324 325 325 326 327 327 327 326 325 324 324 323
334 331 328 328 329 328 328 329 331 333 333 332 333 334 333 333 331 331 334 335 335 333 333 331 331 331 330 328 327 329 329 324 320 315 314 321 327 328 330 330 330 330 331 331 331 329 327 325 324 324 325 326 327 327 327 327 327 326 324 324 324 324
331 330 328 329 329 327 327 328 329 330 331 330 331 333 332 330 330 332 335 335 335 334 333 332 331 332 331 329 327 329 330 326 323 320 317 322 328 330 331 332 331 330 331 331 330 329 328 326 325 325 327 327 327 327 327 328 327 326 325 325 324 324
330 331 329 329 329 327 326 326 327 328 329 330 331 332 330 328 329 332 336 335 335 333 333 332 331 331 332 331 329 327 330 329 325 323 321 322 328 330 330 331 331 331 331 331 330 329 328 327 327 327 328 328 328 328 328 329 328 326 325 325 325 324
330 331 330 330 330 328 327 326 327 327 329 331 332 332 329 328 329 333 336 335 334 333 332 332 331 331 331 331 329 326 328 330 327 325 325 323 325 328 330 330 331 331 331 331 330 329 328 327 328 329 329 328 328 328 329 330 328 327 326 325 324 324
329 330 330 329 330 329 327 327 326 326 328 329 330 330 327 327 330 334 336 335 334 333 332 331 331 331 331 330 328 325 327 330 329 327 327 326 324 326 328 330 330 331 331 331 330 329 328 328 330 330 329 329 328 328 329 330 329 328 326 325 325 324
331 330 330 329 330 329 328 328 328 327 328 328 329 329 326 324 329 334 336 335 334 333 332 331 331 331 331 331 328 325 326 329 330 328 328 328 326 324 326 329 330 331 331 330 329 328 328 329 330 329 329 328 328 328 328 329 329 328 327 326 325 324
334 330 329 329 329 328 329 330 330 330 329 330 330 329 326 323 328 333 335 335 334 333 332 331 331 331 332 332 329 326 326 329 330 329 328 329 329 326 324 326 329 330 330 329 328 327 328 329 328 327 327 328 328 328 328 329 329 329 328 327 326 325
333 330 328 329 330 329 330 330 330 331 331 331 330 328 326 324 328 333 335 335 334 333 332 331 331 331 331 332 331 329 328 328 328 328 328 327 329 328 326 325 326 328 329 328 327 328 329 329 327 327 328 328 328 329 329 329 329 329 328 327 326 325
333 330 328 329 330 330 330 329 330 331 331 332 330 327 325 325 329 333 334 332 330 332 333 331 330 330 331 331 331 331 330 329 328 328 328 327 327 329 328 327 327 328 329 328 328 329 328 328 328 328 329 328 328 329 330 330 329 329 329 328 327 326
334 332 329 328 329 329 329 328 328 329 330 331 330 327 326 326 329 332 332 327 325 330 332 331 330 329 330 330 331 332 331 330 329 328 328 327 327 329 329 329 329 329 330 330 329 328 327 328 328 329 329 329 329 329 330 330 330 330 329 328 328 326
337 334 330 328 328 328 329 328 327 328 329 330 329 329 328 328 329 332 332 326 325 329 331 330 330 329 329 330 331 331 332 330 328 327 328 327 327 329 330 330 330 330 330 330 329 328 328 328 329 329 329 329 329 330 330 330 330 330 329 329 328 327
340 337 332 330 329 328 327 327 327 328 329 330 330 329 329 329 329 330 330 328 328 330 330 330 329 328 328 329 330 331 332 330 327 327 327 327 327 328 329 330 330 330 329 329 329 329 330 330 330 330 330 330 330 330 330 330 330 330 329 329 328 327
339 337 335 335 333 331 328 326 328 329 329 329 330 330 330 329 328 329 328 328 331 331 330 330 329 328 329 329 329 331 331 329 327 327 327 327 326 326 328 329 329 329 329 329 328 330 330 331 331 331 330 330 330 330 330 330 330 329 329 329 328 327
336 335 334 335 336 335 331 329 330 330 328 329 329 330 330 330 329 329 329 329 331 331 330 330 330 329 329 329 329 330 331 329 327 328 328 328 327 326 327 328 328 329 330 329 329 329 330 330 331 331 330 329 329 329 329 329 329 329 329 329 328 328
334 334 334 335 335 335 334 333 333 330 329 329 328 329 331 331 330 329 330 330 330 331 331 331 330 329 329 329 329 330 331 329 327 328 330 330 330 329 329 329 329 329 330 331 330 329 329 329 330 331 330 329 329 329 328 328 328 328 328 328 328 327
333 332 333 334 334 333 333 334 333 332 331 330 329 330 331 332 331 330 332 332 332 331 331 330 330 330 330 330 329 330 330 329 329 328 329 330 331 331 331 330 330 330 330 330 330 331 330 330 330 330 330 330 329 329 329 329 328 327 327 328 327 327
329 327 329 332 334 335 334 333 334 334 332 331 331 331 332 332 331 332 332 332 333 332 332 331 331 331 330 330 330 330 329 329 330 330 330 331 331 331 331 331 331 331 330 330 330 330 331 330 330 330 330 329 329 328 328 328 327 327 327 326 326 326
328 328 329 332 335 337 335 334 334 333 333 332 332 332 333 333 332 333 333 333 334 333 333 333 332 331 331 331 331 331 330 329 330 331 331 332 331 330 330 332 331 331 331 330 330 330 330 330 330 330 330 329 328 328 328 327 327 327 326 326 326 326
329 327 327 330 334 335 335 335 333 333 333 332 333 333 334 333 333 333 333 333 334 334 334 333 333 332 331 331 331 331 331 330 330 332 331 332 332 330 329 329 330 331 331 331 330 330 330 330 330 330 330 329 328 328 327 327 327 327 326 326 326 327
329 327 326 329 333 334 334 335 333 333 333 332 332 332 332 333 333 334 333 333 334 334 334 334 333 333 332 331 331 332 332 330 330 331 331 332 332 330 329 329 330 331 331 331 330 330 330 330 330 330 330 329 328 327 326 326 326 327 326 326 326 326
329 329 329 330 332 333 334 334 333 333 333 333 333 332 332 333 333 333 332 331 332 332 333 334 333 333 333 332 331 331 332 331 331 331 331 332 332 332 330 330 330 330 330 330 330 330 330 330 330 330 329 329 328 328 326 326 326 327 327 327 326 326
329 330 330 331 332 333 333 334 333 333 333 333 332 332 332 332 332 331 331 331 331 331 332 333 333 332 332 331 330 330 330 331 331 330 331 332 332 332 331 330 331 331 330 329 330 330 330 330 330 330 329 328 328 328 327 326 326 326 326 326 326 326
330 330 330 331 332 332 333 333 333 333 332 332 332 333 333 332 332 332 331 332 332 331 331 332 332 332 332 331 331 329 330 330 330 330 330 331 332 332 331 332 332 331 330 329 329 329 329 330 330 330 329 328 328 329 328 327 326 326 326 326 326 326
330 330 330 331 332 332 332 332 333 333 333 332 332 333 333 332 333 332 331 331 331 331 331 330 331 331 331 332 331 330 330 330 330 330 329 330 331 331 331 332 331 330 330 329 329 328 329 330 330 329 329 328 328 329 329 328 326 326 326 326 326 326
330 330 330 330 331 331 332 332 332 333 333 332 332 332 332 331 331 329 328 329 329 329 330 331 330 328 329 331 332 332 331 331 330 329 329 330 331 331 332 332 330 330 330 330 329 328 329 330 330 329 328 329 329 329 329 328 327 327 327 327 326 326
329 329 329 330 330 330 330 331 332 332 332 332 332 332 332 331 330 327 325 326 327 329 331 331 330 328 327 327 329 331 332 332 331 330 329 329 330 331 331 331 331 330 329 329 329 329 329 330 330 329 328 328 329 329 329 328 327 327 328 327 327 326
328 328 328 329 329 329 330 330 330 331 331 331 331 331 331 331 330 328 327 327 328 330 330 330 329 328 326 326 327 328 330 331 331 331 330 330 330 330 329 329 330 329 327 328 329 329 329 330 330 329 328 329 329 329 329 328 327 328 328 327 326 326
327 327 327 327 328 328 328 328 329 329 329 330 331 330 330 330 329 328 328 328 329 329 328 329 330 329 328 328 327 327 329 330 331 331 330 330 329 329 328 329 330 328 327 328 329 328 329 329 329 329 329 329 329 329 329 328 328 328 328 327 326 327
325 326 326 327 327 327 326 327 328 328 328 329 330 330 330 330 329 329 328 328 328 329 329 330 330 329 328 327 327 327 328 329 330 330 330 330 330 329 327 328 329 328 326 326 327 328 328 329 329 330 329 329 329 330 329 328 328 328 328 327 327 327
324 324 325 326 326 326 326 327 327 327 328 328 329 329 329 330 330 329 328 328 328 329 329 329 328 327 327 326 326 328 328 328 329 329 330 330 331 330 327 326 328 329 327 326 326 328 329 329 329 330 330 329 330 330 329 328 327 327 328 327 326 326